#timestamp,LO_Frequency,Hit,StdDev 
1589556455.6,286046993.3,P
1589556475.4,286046996.2,P
1589556495.2,286046993.3,P
1589556515.1,286046993.4,Y
1589556516.0,286046993.4,P
1589556535.8,286046999.9,N
1589556555.7,286047000.1,N
1589556575.5,286046998.5,N
1589556595.3,286046998.2,N
1589556615.2,286046998.7,N
1589556635.9,286046999.1,N
1589556655.7,286046996.8,N
1589556675.6,286046996.9,N
1589556695.4,286046995.0,N
1589556715.3,286046997.8,N
1589556735.1,286046996.7,N
1589556736.0,286046996.7,N
1589556755.8,286046998.9,N
1589556775.7,286046998.8,N
1589556795.5,286046998.5,N
1589556815.3,286047001.1,N
1589556835.2,286047000.5,N
1589556855.0,286047000.8,N
1589556855.9,286047000.8,N
1589556875.8,286047001.1,N
1589556895.6,286046998.1,N
1589556915.4,286046999.6,N
1589556935.3,286046997.5,N
1589556955.1,286046997.9,N
1589556975.8,286046994.9,N
1589556995.7,286046997.8,N
1589557015.5,286046997.2,N
1589557035.4,286046997.6,N
1589557055.2,286046997.7,N
1589557075.0,286046998.0,N
1589557075.9,286046998.0,N
1589557095.8,286046995.3,N
1589557115.6,286046995.3,N
1589557135.4,286046997.4,N
1589557155.3,286046997.7,N
1589557175.1,286046997.7,N
1589557195.9,286046995.4,N
1589557215.7,286046997.4,N
1589557235.5,286046997.7,N
1589557255.4,286046994.9,Y
1589557275.2,286046996.5,P
1589557295.0,286046995.3,P
1589557296.0,286046995.3,P
1589557315.8,286046994.2,Y
1589557335.6,286046997.9,P
1589557355.5,286046995.9,P
1589557375.3,286046994.2,P
1589557395.1,286046995.3,Y
1589557415.9,286047003.6,P
1589557435.7,286047003.3,N
1589557455.6,286047005.0,N
1589557475.4,286047005.7,N
1589557495.2,286047004.6,N
1589557515.1,286047004.9,N
1589557516.0,286047004.9,N
1589557535.8,286047006.3,N
1589557555.6,286047006.1,N
1589557575.5,286047008.1,N
1589557595.3,286047007.8,N
1589557615.2,286047008.3,N
1589557635.9,286047008.5,N
1589557655.7,286047008.6,N
1589557675.6,286047008.5,N
1589557695.4,286047008.7,N
1589557715.3,286047008.7,N
1589557735.1,286047008.9,N
1589557736.0,286047008.9,N
1589557755.8,286047009.2,Y
1589557775.7,286047002.3,P
1589557795.5,286047002.5,N
1589557815.3,286047002.1,N
1589557835.2,286047000.1,N
1589557855.0,286046998.1,N
1589557855.9,286046998.1,N
1589557875.8,286046998.3,N
1589557895.6,286047002.8,N
1589557915.4,286047002.8,N
1589557935.3,286047004.4,N
1589557955.1,286047003.1,N
1589557975.8,286047004.2,N
1589557995.7,286047004.4,N
1589558015.5,286047001.5,N
1589558035.4,286047001.8,N
1589558055.2,286046999.7,N
1589558075.0,286047001.5,N
1589558075.9,286047001.5,N
1589558095.8,286047001.6,N
1589558115.6,286047001.5,N
1589558135.4,286047003.8,N
1589558155.3,286047003.8,N
1589558175.1,286047003.9,N
1589558195.9,286047004.0,N
1589558215.7,286047004.3,N
1589558235.5,286047003.8,N
1589558255.4,286047003.6,N
1589558275.2,286047003.5,N
1589558295.0,286047003.8,N
1589558296.0,286047003.8,N
1589558315.8,286047003.3,N
1589558335.6,286047003.7,N
1589558355.5,286047002.5,N
1589558375.3,286047000.1,N
1589558395.1,286047002.2,N
